Surface/Precipitation History
05/05/2015 10:32  to  5/6/2015 10:32
Change End Date:
Date/Time
(MDT)
Sf
Temp Chem Water Layer Surface Precipitation
Sf Sub Frz Factor Pct Depth IcePct Cond Salin Type Intens Accum Rate
05/06/2015 10:30 Dry 69.3F - - - - - - 0 mhos 0 None None - -
05/06/2015 10:27 Dry 68.9F - - - - - - 0 mhos 0 None None - -
05/06/2015 10:17 Dry 66.7F - - - - - - 0 mhos 0 None None - -
05/06/2015 10:11 Dry 66.0F - - - - - - 0 mhos 0 None None - -
05/06/2015 10:07 Dry 62.4F - - - - - - 0 mhos 0 None None - -
05/06/2015 10:01 Dry 61.9F - - - - - - 0 mhos 0 None None - -
05/06/2015 09:57 Dry 59.4F - - - - - - 0 mhos 0 None None - -
05/06/2015 09:47 Dry 60.3F - - - - - - 0 mhos 0 None None - -
05/06/2015 09:41 Dry 61.5F - - - - - - 0 mhos 0 None None - -
05/06/2015 09:37 Dry 60.1F - - - - - - 0 mhos 0 None None - -
05/06/2015 09:31 Dry 53.8F - - - - - - 0 mhos 0 None None - -
05/06/2015 09:26 Dry 53.6F - - - - - - 0 mhos 0 None None - -
05/06/2015 09:16 Dry 50.5F - - - - - - 0 mhos 0 None None - -
05/06/2015 09:11 Dry 50.9F - - - - - - 0 mhos 0 None None - -
05/06/2015 09:06 Dry 50.0F - - - - - - 0 mhos 0 None None - -
Date/Time
(MDT)
Sf
Temp Chem Water Layer Surface Precipitation
Sf Sub Frz Factor Pct Depth IcePct Cond Salin Type Intens Accum Rate
05/06/2015 09:00 Dry 48.4F - - - - - - 0 mhos 0 None None - -
05/06/2015 08:56 Dry 49.3F - - - - - - 0 mhos 0 None None - -
05/06/2015 08:46 Dry 46.8F - - - - - - 0 mhos 0 None None - -
05/06/2015 08:41 Dry 47.3F - - - - - - 0 mhos 0 None None - -
05/06/2015 08:36 Dry 47.3F - - - - - - 0 mhos 0 None None - -
05/06/2015 08:31 Dry 47.1F - - - - - - 0 mhos 0 None None - -
05/06/2015 08:26 Dry 46.4F - - - - - - 0 mhos 0 None None - -
05/06/2015 08:16 Dry 45.3F - - - - - - 0 mhos 0 None None - -
05/06/2015 08:11 Dry 44.8F - - - - - - 0 mhos 0 None None - -
05/06/2015 08:06 Dry 44.6F - - - - - - 0 mhos 0 None None - -
05/06/2015 08:01 Dry 43.9F - - - - - - 0 mhos 0 None None - -
05/06/2015 07:56 Dry 43.3F - - - - - - 0 mhos 0 None None - -
05/06/2015 07:46 Dry 42.8F - - - - - - 0 mhos 0 None None - -
05/06/2015 07:41 Dry 42.6F - - - - - - 0 mhos 0 None None - -
05/06/2015 07:36 Dry 42.1F - - - - - - 0 mhos 0 None None - -
Date/Time
(MDT)
Sf
Temp Chem Water Layer Surface Precipitation
Sf Sub Frz Factor Pct Depth IcePct Cond Salin Type Intens Accum Rate
05/06/2015 07:30 Dry 41.7F - - - - - - 0 mhos 0 None None - -
05/06/2015 07:26 Dry 41.4F - - - - - - 0 mhos 0 None None - -
05/06/2015 07:16 Dry 41.0F - - - - - - 0 mhos 0 None None - -
05/06/2015 07:11 Dry 40.6F - - - - - - 0 mhos 0 None None - -
05/06/2015 07:06 Wet 40.6F - 32F 5 0% 0.00 in 0% 0 mhos 0 None None - -
05/06/2015 07:00 Wet 40.8F - 32F 5 0% 0.00 in 0% 0 mhos 0 None None - -
05/06/2015 06:56 Wet 40.8F - 32F 5 0% 0.00 in 0% 0 mhos 0 None None - -
05/06/2015 06:46 Wet 41.0F - 32F 5 0% 0.00 in 0% 0 mhos 0 None None - -
05/06/2015 06:42 Wet 41.2F - 32F 5 0% 0.00 in 0% 0 mhos 0 None None - -
05/06/2015 06:36 Wet 41.4F - 32F 5 0% 0.00 in 0% 0 mhos 0 None None - -
05/06/2015 06:31 Wet 41.4F - 32F 5 0% 0.00 in 0% 0 mhos 0 None None - -
05/06/2015 06:26 Wet 41.4F - 32F 5 0% 0.00 in 0% 0 mhos 0 None None - -
05/06/2015 06:16 Wet 41.5F - 32F 10 0% 0.00 in 0% 0 mhos 0 None None - -
05/06/2015 06:11 Wet 41.4F - 32F 10 0% 0.00 in 0% 0 mhos 0 None None - -
05/06/2015 06:05 Wet 41.5F - 32F 10 0% 0.00 in 0% 0 mhos 0 None None - -
Date/Time
(MDT)
Sf
Temp Chem Water Layer Surface Precipitation
Sf Sub Frz Factor Pct Depth IcePct Cond Salin Type Intens Accum Rate
05/06/2015 06:01 Wet 41.7F - 32F 15 0% 0.00 in 0% 0 mhos 0 None None - -
05/06/2015 05:55 Wet 41.5F - 32F 5 0% 0.00 in 0% 0 mhos 0 None None - -
05/06/2015 05:45 Wet 41.5F - 32F 10 0% 0.00 in 0% 0 mhos 0 None None - -
05/06/2015 05:35 Wet 41.5F - 32F 20 0% 0.00 in 0% 0 mhos 0 Yes - - -
05/06/2015 05:31 Wet 41.9F - 32F 10 0% 0.00 in 0% 0 mhos 0 None None - -
05/06/2015 05:25 Wet 41.9F - 32F 10 0% 0.00 in 0% 0 mhos 0 None None - -
05/06/2015 05:15 Wet 42.1F - 32F 25 0% 0.00 in 0% 0 mhos 0 None None - -
05/06/2015 05:05 Wet 42.3F - 32F 20 0% 0.00 in 0% 0 mhos 0 Yes - - -
05/06/2015 05:01 Wet 42.4F - 32F 15 0% 0.00 in 0% 0 mhos 0 Yes - - -
05/06/2015 04:55 Wet 42.3F - 32F 5 0% 0.00 in 0% 0 mhos 0 Yes - - -
05/06/2015 04:45 Wet 42.4F - 32F 15 0% 0.00 in 0% 0 mhos 0 None None - -
05/06/2015 04:35 Wet 42.6F - 32F 15 0% 0.00 in 0% 0 mhos 0 None None - -
05/06/2015 04:32 Wet 42.8F - 32F 10 0% 0.00 in 0% 0 mhos 0 None None - -
05/06/2015 04:25 Wet 43.2F - 32F 20 0% 0.00 in 0% 0 mhos 0 Yes - - -
05/06/2015 04:15 Wet 43.5F - 32F 15 0% 0.00 in 0% 0 mhos 0 Yes - - -
Date/Time
(MDT)
Sf
Temp Chem Water Layer Surface Precipitation
Sf Sub Frz Factor Pct Depth IcePct Cond Salin Type Intens Accum Rate
05/06/2015 04:05 Wet 43.5F - 32F 25 0% 0.00 in 0% 0 mhos 0 Yes - - -
05/06/2015 04:01 Wet 43.7F - 32F 20 0% 0.00 in 0% 0 mhos 0 Yes - - -
05/06/2015 03:55 Wet 43.3F - 32F 20 0% 0.00 in 0% 0 mhos 0 Yes - - -
05/06/2015 03:45 Wet 44.8F - 32F 20 0% 0.00 in 0% 0 mhos 0 None None - -
05/06/2015 03:35 Wet 45.0F - 32F 5 0% 0.00 in 0% 0 mhos 0 None None - -
05/06/2015 03:32 Wet 44.8F - 32F 5 0% 0.00 in 0% 0 mhos 0 None None - -
05/06/2015 03:25 Wet 44.8F - 32F 5 0% 0.00 in 0% 0 mhos 0 None None - -
05/06/2015 03:15 Wet 45.0F - 32F 5 0% 0.00 in 0% 0 mhos 0 None None - -
05/06/2015 03:05 Wet 44.8F - 32F 15 0% 0.00 in 0% 0 mhos 0 None None - -
05/06/2015 03:01 Wet 44.6F - 32F 20 0% 0.00 in 0% 0 mhos 0 None None - -
05/06/2015 02:55 Wet 44.8F - 32F 20 0% 0.00 in 0% 0 mhos 0 None None - -
05/06/2015 02:45 Wet 44.8F - 32F 25 0% 0.00 in 0% 0 mhos 0 None None - -
05/06/2015 02:35 Wet 45.1F - 32F 15 0% 0.00 in 0% 0 mhos 0 None None - -
05/06/2015 02:31 Wet 45.3F - 32F 5 0% 0.00 in 0% 0 mhos 0 None None - -
05/06/2015 02:25 Wet 45.5F - 32F 5 0% 0.00 in 0% 0 mhos 0 None None - -
Date/Time
(MDT)
Sf
Temp Chem Water Layer Surface Precipitation
Sf Sub Frz Factor Pct Depth IcePct Cond Salin Type Intens Accum Rate
05/06/2015 02:15 Wet 45.9F - 32F 5 0% 0.00 in 0% 0 mhos 0 None None - -
05/06/2015 02:04 Wet 46.4F - 32F 30 0% 0.00 in 0% 0 mhos 0 None None - -
05/06/2015 02:03 Wet 46.4F - 32F 45 0% 0.00 in 0% 0 mhos 0 Yes - - -
05/06/2015 01:54 Wet 46.6F - 32F 5 0% 0.00 in 0% 0 mhos 0 Yes - - -
05/06/2015 01:44 Wet 46.2F - 32F 5 0% 0.00 in 0% 0 mhos 0 Yes - - -
05/06/2015 01:34 Wet 46.6F - 32F 15 0% 0.00 in 0% 0 mhos 0 Yes - - -
05/06/2015 01:31 Wet 46.9F - 32F 20 0% 0.00 in 0% 0 mhos 0 Yes - - -
05/06/2015 01:24 Wet 47.7F - 32F 25 0% 0.00 in 0% 0 mhos 0 Yes - - -
05/06/2015 01:14 Wet 48.2F - 32F 10 0% 0.00 in 0% 0 mhos 0 Yes - - -
05/06/2015 01:12 Wet 48.6F - 32F 5 0% 0.00 in 0% 0 mhos 0 Yes - - -
05/06/2015 01:04 Dry 48.9F - - - - - - 0 mhos 0 Yes - - -
05/06/2015 01:01 Dry 49.1F - - - - - - 0 mhos 0 Yes - - -
05/06/2015 00:54 Dry 49.5F - - - - - - 0 mhos 0 Yes - - -
05/06/2015 00:44 Dry 50.2F - - - - - - 0 mhos 0 None None - -
05/06/2015 00:34 Dry 50.4F - - - - - - 0 mhos 0 None None - -
Date/Time
(MDT)
Sf
Temp Chem Water Layer Surface Precipitation
Sf Sub Frz Factor Pct Depth IcePct Cond Salin Type Intens Accum Rate
05/06/2015 00:31 Dry 50.4F - - - - - - 0 mhos 0 None None - -
05/06/2015 00:24 Dry 50.4F - - - - - - 0 mhos 0 None None - -
05/06/2015 00:14 Dry 50.4F - - - - - - 0 mhos 0 None None - -
05/06/2015 00:13 Dry 50.4F - - - - - - 0 mhos 0 None None - -
05/06/2015 00:04 Dry 50.5F - - - - - - 0 mhos 0 None None - -
05/05/2015 23:58 Dry 50.5F - - - - - - 0 mhos 0 None None - -
05/05/2015 23:54 Dry 50.7F - - - - - - 0 mhos 0 Yes - - -
05/05/2015 23:44 Dry 51.1F - - - - - - 0 mhos 0 Yes - - -
05/05/2015 23:34 Dry 51.4F - - - - - - 0 mhos 0 None None - -
05/05/2015 23:31 Dry 51.6F - - - - - - 0 mhos 0 None None - -
05/05/2015 23:24 Dry 51.8F - - - - - - 0 mhos 0 Yes - - -
05/05/2015 23:14 Dry 51.8F - - - - - - 0 mhos 0 None None - -
05/05/2015 23:09 Dry 51.8F - - - - - - 0 mhos 0 None None - -
05/05/2015 23:04 Dry 52.0F - - - - - - 0 mhos 0 None None - -
05/05/2015 22:54 Dry 52.0F - - - - - - 0 mhos 0 None None - -
Date/Time
(MDT)
Sf
Temp Chem Water Layer Surface Precipitation
Sf Sub Frz Factor Pct Depth IcePct Cond Salin Type Intens Accum Rate
05/05/2015 22:44 Dry 52.0F - - - - - - 0 mhos 0 None None - -
05/05/2015 22:41 Dry 52.0F - - - - - - 0 mhos 0 None None - -
05/05/2015 22:34 Dry 52.0F - - - - - - 0 mhos 0 None None - -
05/05/2015 22:24 Dry 52.2F - - - - - - 0 mhos 0 None None - -
05/05/2015 22:14 Dry 52.0F - - - - - - 0 mhos 0 Yes - - -
05/05/2015 22:04 Dry 52.0F - - - - - - 0 mhos 0 None None - -
05/05/2015 22:01 Dry 51.8F - - - - - - 0 mhos 0 None None - -
05/05/2015 21:54 Dry 51.8F - - - - - - 0 mhos 0 None None - -
05/05/2015 21:43 Dry 51.8F - - - - - - 0 mhos 0 None None - -
05/05/2015 21:33 Dry 51.8F - - - - - - 0 mhos 0 None None - -
05/05/2015 21:31 Dry 51.6F - - - - - - 0 mhos 0 None None - -
05/05/2015 21:23 Dry 51.3F - - - - - - 0 mhos 0 None None - -
05/05/2015 21:13 Dry 50.7F - - - - - - 0 mhos 0 None None - -
05/05/2015 21:11 Dry 50.5F - - - - - - 0 mhos 0 None None - -
05/05/2015 21:03 Wet 50.7F - 32F 5 0% 0.00 in 0% 0 mhos 0 None None - -
Date/Time
(MDT)
Sf
Temp Chem Water Layer Surface Precipitation
Sf Sub Frz Factor Pct Depth IcePct Cond Salin Type Intens Accum Rate
05/05/2015 21:00 Wet 50.9F - 32F 5 0% 0.00 in 0% 0 mhos 0 None None - -
05/05/2015 20:53 Wet 51.4F - 32F 5 0% 0.00 in 0% 0 mhos 0 None None - -
05/05/2015 20:43 Wet 51.6F - 32F 5 0% 0.00 in 0% 0 mhos 0 None None - -
05/05/2015 20:41 Wet 51.8F - 32F 5 0% 0.00 in 0% 0 mhos 0 None None - -
05/05/2015 20:33 Wet 52.5F - 32F 5 0% 0.00 in 0% 0 mhos 0 None None - -
05/05/2015 20:31 Wet 52.9F - 32F 5 0% 0.00 in 0% 0 mhos 0 None None - -
05/05/2015 20:23 Wet 53.1F - 32F 5 0% 0.00 in 0% 0 mhos 0 None None - -
05/05/2015 20:13 Wet 53.2F - 32F 5 0% 0.00 in 0% 0 mhos 0 None None - -
05/05/2015 20:11 Wet 53.4F - 32F 5 0% 0.00 in 0% 0 mhos 0 None None - -
05/05/2015 20:03 Wet 53.8F - 32F 5 0% 0.00 in 0% 0 mhos 0 None None - -
05/05/2015 20:01 Wet 53.8F - 32F 10 0% 0.00 in 0% 0 mhos 0 None None - -
05/05/2015 19:53 Wet 54.1F - 32F 15 0% 0.00 in 0% 0 mhos 0 None None - -
05/05/2015 19:43 Wet 54.5F - 32F 25 0% 0.00 in 0% 0 mhos 0 None None - -
05/05/2015 19:41 Wet 54.9F - 32F 20 0% 0.00 in 0% 0 mhos 0 None None - -
05/05/2015 19:33 Wet 55.4F - 32F 15 0% 0.00 in 0% 0 mhos 0 None None - -
Date/Time
(MDT)
Sf
Temp Chem Water Layer Surface Precipitation
Sf Sub Frz Factor Pct Depth IcePct Cond Salin Type Intens Accum Rate
05/05/2015 19:31 Wet 55.4F - 32F 15 0% 0.00 in 0% 0 mhos 0 None None - -
05/05/2015 19:23 Wet 54.9F - 32F 20 0% 0.00 in 0% 0 mhos 0 Yes - - -
05/05/2015 19:13 Wet 55.4F - 32F 15 0% 0.00 in 0% 0 mhos 0 Yes - - -
05/05/2015 19:11 Wet 55.6F - 32F 15 0% 0.00 in 0% 0 mhos 0 Yes - - -
05/05/2015 19:03 Wet 55.8F - 32F 10 0% 0.00 in 0% 0 mhos 0 Yes - - -
05/05/2015 19:01 Wet 55.6F - 32F 15 0% 0.00 in 0% 0 mhos 0 Yes - - -
05/05/2015 18:53 Wet 55.6F - 32F 25 0% 0.00 in 0% 0 mhos 0 Yes - - -
05/05/2015 18:43 Wet 55.9F - 32F 55 0% 0.00 in 0% 0 mhos 0 Yes - - -
05/05/2015 18:41 Wet 55.9F - 32F 45 0% 0.00 in 0% 0 mhos 0 Yes - - -
05/05/2015 18:33 Wet 55.8F - 32F 50 0% 0.00 in 0% 0 mhos 0 Yes - - -
05/05/2015 18:30 Wet 56.1F - 32F 45 0% 0.00 in 0% 0 mhos 0 Yes - - -
05/05/2015 18:23 Wet 55.9F - 32F 95 0% 0.00 in 0% 0 mhos 0 Yes - - -
05/05/2015 18:12 Wet 56.3F - 32F 55 0% 0.00 in 0% 0 mhos 0 Yes - - -
05/05/2015 18:11 Wet 56.5F - 32F 90 0% 0.00 in 0% 0 mhos 0 Yes - - -
05/05/2015 18:02 Wet 56.8F - 32F 90 0% 0.00 in 0% 0 mhos 0 Yes - - -
Date/Time
(MDT)
Sf
Temp Chem Water Layer Surface Precipitation
Sf Sub Frz Factor Pct Depth IcePct Cond Salin Type Intens Accum Rate
05/05/2015 18:01 Wet 57.4F - 32F 95 0% 0.00 in 0% 0 mhos 0 Yes - - -
05/05/2015 17:52 Wet 57.9F - 32F 95 0% 0.00 in 0% 0 mhos 0 Yes - - -
05/05/2015 17:42 Wet 57.9F - 32F 95 0% 0.00 in 0% 0 mhos 0 Yes - - -
05/05/2015 17:41 Wet 57.9F - 32F 90 0% 0.00 in 0% 0 mhos 0 Yes - - -
05/05/2015 17:32 Wet 58.6F - 32F 95 0% 0.00 in 0% 0 mhos 0 Yes - - -
05/05/2015 17:30 Wet 59.0F - 32F 95 0% 0.00 in 0% 0 mhos 0 Yes - - -
05/05/2015 17:22 Dry 64.0F - - - - - - 0 mhos 0 None None - -
05/05/2015 17:12 Dry 64.0F - - - - - - 0 mhos 0 Yes - - -
05/05/2015 17:11 Dry 63.9F - - - - - - 0 mhos 0 Yes - - -
05/05/2015 17:02 Dry 67.1F - - - - - - 0 mhos 0 Yes - - -
05/05/2015 17:00 Dry 67.8F - - - - - - 0 mhos 0 Yes - - -
05/05/2015 16:52 Dry 68.7F - - - - - - 0 mhos 0 None None - -
05/05/2015 16:42 Dry 70.0F - - - - - - 0 mhos 0 None None - -
05/05/2015 16:41 Dry 70.2F - - - - - - 0 mhos 0 None None - -
05/05/2015 16:32 Dry 72.5F - - - - - - 0 mhos 0 None None - -
Date/Time
(MDT)
Sf
Temp Chem Water Layer Surface Precipitation
Sf Sub Frz Factor Pct Depth IcePct Cond Salin Type Intens Accum Rate
05/05/2015 16:31 Dry 72.3F - - - - - - 0 mhos 0 None None - -
05/05/2015 16:22 Dry 72.5F - - - - - - 0 mhos 0 None None - -
05/05/2015 16:12 Dry 74.3F - - - - - - 0 mhos 0 None None - -
05/05/2015 16:11 Dry 74.8F - - - - - - 0 mhos 0 None None - -
05/05/2015 16:02 Dry 77.2F - - - - - - 0 mhos 0 None None - -
05/05/2015 16:00 Dry 77.7F - - - - - - 0 mhos 0 None None - -
05/05/2015 15:52 Dry 80.8F - - - - - - 0 mhos 0 None None - -
05/05/2015 15:42 Dry 79.9F - - - - - - 0 mhos 0 None None - -
05/05/2015 15:41 Dry 79.2F - - - - - - 0 mhos 0 None None - -
05/05/2015 15:32 Dry 79.2F - - - - - - 0 mhos 0 None None - -
05/05/2015 15:31 Dry 79.0F - - - - - - 0 mhos 0 None None - -
05/05/2015 15:22 Dry 75.9F - - - - - - 0 mhos 0 None None - -
05/05/2015 15:12 Wet 72.7F - 32F 55 0% 0.00 in 0% 0 mhos 0 Yes - - -
05/05/2015 15:11 Wet 72.3F - 32F 95 0% 0.00 in 0% 0 mhos 0 Yes - - -
05/05/2015 15:02 Dry 67.5F - - - - - - 0 mhos 0 Yes - - -
Date/Time
(MDT)
Sf
Temp Chem Water Layer Surface Precipitation
Sf Sub Frz Factor Pct Depth IcePct Cond Salin Type Intens Accum Rate
05/05/2015 15:00 Dry 68.0F - - - - - - 0 mhos 0 None None - -
05/05/2015 14:51 Dry 67.3F - - - - - - 0 mhos 0 None None - -
05/05/2015 14:41 Dry 66.2F - - - - - - 0 mhos 0 Yes - - -
05/05/2015 14:41 Dry 66.2F - - - - - - 0 mhos 0 Yes - - -
05/05/2015 14:31 Dry 67.1F - - - - - - 0 mhos 0 None None - -
05/05/2015 14:30 Dry 66.2F - - - - - - 0 mhos 1 None None - -
05/05/2015 14:21 Wet 66.9F - 32F 60 0% 0.00 in 0% 0 mhos 0 Yes - - -
05/05/2015 14:11 Dry 78.4F - - - - - - 0 mhos 0 None None - -
05/05/2015 14:11 Dry 79.0F - - - - - - 0 mhos 0 None None - -
05/05/2015 14:01 Dry 83.5F - - - - - - 0 mhos 0 Yes - - -
05/05/2015 14:00 Dry 83.3F - - - - - - 0 mhos 0 Yes - - -
05/05/2015 13:51 Dry 88.2F - - - - - - 0 mhos 0 None None - -
05/05/2015 13:41 Dry 92.8F - - - - - - 0 mhos 0 None None - -
05/05/2015 13:41 Dry 90.5F - - - - - - 0 mhos 0 None None - -
05/05/2015 13:31 Dry 85.5F - - - - - - 0 mhos 0 None None - -
Date/Time
(MDT)
Sf
Temp Chem Water Layer Surface Precipitation
Sf Sub Frz Factor Pct Depth IcePct Cond Salin Type Intens Accum Rate
05/05/2015 13:31 Dry 85.8F - - - - - - 0 mhos 0 None None - -
05/05/2015 13:21 Dry 84.6F - - - - - - 0 mhos 0 None None - -
05/05/2015 13:11 Dry 86.5F - - - - - - 0 mhos 0 None None - -
05/05/2015 13:11 Dry 86.0F - - - - - - 0 mhos 0 None None - -
05/05/2015 13:01 Dry 87.4F - - - - - - 0 mhos 0 None None - -
05/05/2015 13:01 Dry 88.0F - - - - - - 0 mhos 0 None None - -
05/05/2015 12:51 Dry 87.4F - - - - - - 0 mhos 0 None None - -
05/05/2015 12:41 Dry 86.5F - - - - - - 0 mhos 0 None None - -
05/05/2015 12:41 Dry 86.5F - - - - - - 0 mhos 0 None None - -
05/05/2015 12:31 Dry 83.1F - - - - - - 0 mhos 0 None None - -
05/05/2015 12:30 Dry 82.6F - - - - - - 0 mhos 0 None None - -
05/05/2015 12:21 Dry 82.0F - - - - - - 0 mhos 0 None None - -
05/05/2015 12:12 Dry 83.7F - - - - - - 0 mhos 0 None None - -
05/05/2015 12:11 Dry 83.3F - - - - - - 0 mhos 0 None None - -
05/05/2015 12:01 Dry 83.1F - - - - - - 0 mhos 0 None None - -
Date/Time
(MDT)
Sf
Temp Chem Water Layer Surface Precipitation
Sf Sub Frz Factor Pct Depth IcePct Cond Salin Type Intens Accum Rate
05/05/2015 12:00 Dry 82.9F - - - - - - 0 mhos 0 None None - -
05/05/2015 11:51 Dry 85.3F - - - - - - 0 mhos 0 None None - -
05/05/2015 11:41 Dry 83.3F - - - - - - 0 mhos 0 None None - -
05/05/2015 11:41 Dry 83.3F - - - - - - 0 mhos 0 None None - -
05/05/2015 11:31 Dry 82.4F - - - - - - 0 mhos 0 None None - -
05/05/2015 11:31 Dry 82.6F - - - - - - 0 mhos 0 None None - -
05/05/2015 11:21 Dry 82.9F - - - - - - 0 mhos 0 None None - -
05/05/2015 11:11 Dry 81.1F - - - - - - 0 mhos 0 None None - -
05/05/2015 11:11 Dry 81.1F - - - - - - 0 mhos 0 None None - -
05/05/2015 11:01 Dry 77.9F - - - - - - 0 mhos 0 None None - -
05/05/2015 11:01 Dry 77.9F - - - - - - 0 mhos 0 None None - -
05/05/2015 10:51 Dry 78.3F - - - - - - 0 mhos 0 None None - -
05/05/2015 10:41 Dry 76.3F - - - - - - 0 mhos 0 None None - -
05/05/2015 10:41 Dry 76.3F - - - - - - 0 mhos 0 None None - -
Change End Date:
Copyright © 1998-2005 Surface Systems, Inc.
All Rights Reserved
Send comments about the data to:
SCAN Web ® is a registered trademark of Surface Systems, Inc.
SCAN Web Version 5.6